CW9244 Weather Reports


Display with metric or nautical units.
time (UTC)temp
F
wind
direction
speed
MPH
gust
MPH
rain 1hr
in
rain 24hr
in
rain mn
in
humidity
%
barometer
mb
20260905195116 78 337 0.0 1.0 0.00 0.00 0.00 55 1025.3
20260905194213 80 337 0.0 1.0 0.00 0.00 0.00 51 1025.2
20260905193216 83 337 0.0 0.0 0.00 0.00 0.00 50 1025.2
20260905192315 81 337 0.0 2.0 0.00 0.00 0.00 51 1025.2
20260905191414 80 337 1.0 4.0 0.00 0.00 0.00 53 1025.4
20260905190417 80 337 3.0 4.0 0.00 0.00 0.00 54 1025.5
20260905185414 80 337 0.0 0.0 0.00 0.00 0.00 54 1025.4
20260905185317 79 337 0.0 1.0 0.00 0.00 0.00 55 1025.5
20260905184415 79 337 2.0 4.0 0.00 0.00 0.00 55 1025.6
20260905183417 78 337 0.0 3.0 0.00 0.00 0.00 59 1025.5
20260905182514 78 337 1.0 3.0 0.00 0.00 0.00 58 1025.7
20260905180516 76 337 0.0 1.0 0.00 0.00 0.00 60 1025.9
20260905175514 77 337 0.0 2.0 0.00 0.00 0.00 58 1025.9
20260905174517 77 337 0.0 2.0 0.00 0.00 0.00 58 1025.9
20260905173616 78 337 2.0 3.0 0.00 0.00 0.00 56 1025.9
20260905172616 78 337 3.0 5.0 0.00 0.00 0.00 57 1026.0
20260905171616 78 337 0.0 1.0 0.00 0.00 0.00 58 1026.0
20260905170616 77 337 0.0 4.0 0.00 0.00 0.00 59 1026.1
20260905164715 76 180 0.0 0.0 0.00 0.00 0.00 60 1026.0
20260905164616 76 180 0.0 1.0 0.00 0.00 0.00 60 1026.2
20260905163616 77 180 0.0 0.0 0.00 0.00 0.00 59 1026.1
20260905162615 77 180 0.0 2.0 0.00 0.00 0.00 62 1026.0
20260905161613 77 180 1.0 3.0 0.00 0.00 0.00 63 1025.9
20260905160615 76 337 0.0 2.0 0.00 0.00 0.00 65 1026.1
20260905155616 74 337 0.0 0.0 0.00 0.00 0.00 68 1026.1
20260905154614 75 337 2.0 7.0 0.00 0.00 0.00 66 1026.0
20260905153614 75 112 0.0 1.0 0.00 0.00 0.00 66 1026.2
20260905152616 75 112 0.0 1.0 0.00 0.00 0.00 66 1026.3
20260905151714 75 292 1.0 3.0 0.00 0.00 0.00 66 1026.1
20260905145718 75 337 2.0 5.0 0.00 0.00 0.00 64 1026.0
20260905144714 75 77 1.0 2.0 0.00 0.00 0.00 64 1026.0
20260905143717 73 67 0.0 0.0 0.00 0.00 0.00 66 1026.1
20260905142717 74 292 2.0 5.0 0.00 0.00 0.00 67 1025.9
20260905141714 74 341 1.0 5.0 0.00 0.00 0.00 66 1026.0
20260905135716 73 292 0.0 2.0 0.00 0.00 0.00 70 1026.0
20260905134814 72 228 1.0 5.0 0.00 0.00 0.00 71 1025.8
20260905133816 72 313 3.0 5.0 0.00 0.00 0.00 71 1025.9
20260905132914 73 292 3.0 4.0 0.00 0.00 0.00 70 1026.1
20260905131915 72 337 0.0 1.0 0.00 0.00 0.00 72 1026.2
20260905130915 71 292 0.0 1.0 0.00 0.00 0.00 75 1026.4
20260905130015 70 337 1.0 2.0 0.00 0.00 0.00 76 1026.4
20260905125016 71 335 2.0 3.0 0.00 0.00 0.00 75 1026.5
20260905124113 70 294 3.0 5.0 0.00 0.00 0.00 76 1026.4
20260905122116 70 291 3.0 5.0 0.00 0.00 0.00 78 1026.7
20260905120116 69 292 2.0 4.0 0.00 0.00 0.00 79 1026.5
20260905115117 68 285 2.0 4.0 0.00 0.00 0.00 80 1026.5
20260905114213 68 334 2.0 4.0 0.00 0.00 0.00 81 1026.3
20260905113215 68 337 1.0 3.0 0.00 0.00 0.00 83 1026.3
20260905112215 67 308 1.0 2.0 0.00 0.00 0.00 84 1026.2
20260905111217 67 292 2.0 2.0 0.00 0.00 0.00 84 1026.0
20260905110216 67 292 0.0 1.0 0.00 0.00 0.00 84 1025.9
20260905105214 67 292 0.0 0.0 0.00 0.00 0.00 84 1025.8
20260905103215 67 292 1.0 2.0 0.00 0.00 0.00 83 1025.5
20260905102217 67 292 0.0 1.0 0.00 0.00 0.00 82 1025.6
20260905101216 67 292 1.0 1.0 0.00 0.00 0.00 81 1025.6
20260905100216 67 292 1.0 1.0 0.00 0.00 0.00 81 1025.5
20260905095214 67 292 2.0 2.0 0.00 0.01 0.00 80 1025.5
20260905094216 68 292 1.0 1.0 0.00 0.01 0.00 80 1025.4
20260905093315 68 330 1.0 1.0 0.00 0.01 0.00 79 1025.3
20260905092318 68 315 0.0 1.0 0.00 0.01 0.00 78 1025.4
20260905091316 68 315 0.0 1.0 0.00 0.01 0.00 77 1025.4
20260905090316 69 337 0.0 1.0 0.00 0.01 0.00 77 1025.3
20260905085315 69 292 1.0 2.0 0.00 0.01 0.00 77 1025.5
20260905084414 69 55 0.0 2.0 0.00 0.01 0.00 77 1025.4
20260905082516 69 306 1.0 2.0 0.00 0.01 0.00 76 1025.3
20260905081514 69 322 2.0 5.0 0.00 0.01 0.00 76 1025.2
20260905080614 69 292 1.0 2.0 0.00 0.01 0.00 75 1025.2
20260905075615 69 332 1.0 3.0 0.00 0.01 0.00 75 1025.2
20260905074614 69 334 2.0 5.0 0.00 0.01 0.00 75 1025.2
20260905073617 70 303 2.0 4.0 0.00 0.01 0.00 75 1025.2
20260905072715 70 337 1.0 2.0 0.00 0.01 0.00 75 1025.2
20260905070716 70 292 2.0 3.0 0.00 0.01 0.00 73 1025.3
20260905064816 71 307 2.0 6.0 0.00 0.01 0.00 71 1025.5
20260905063816 71 292 1.0 3.0 0.00 0.09 0.00 71 1025.5
20260905061914 72 300 1.0 2.0 0.00 0.37 0.00 69 1025.7
20260905061013 72 318 1.0 4.0 0.00 0.80 0.00 69 1025.6
20260905060015 72 321 1.0 2.0 0.00 0.98 0.00 69 1025.8
20260905055113 72 319 2.0 3.0 0.00 0.98 0.00 69 1025.7
20260905054213 72 333 2.0 3.0 0.00 0.98 0.00 70 1025.7
20260905052216 72 334 1.0 2.0 0.00 0.98 0.00 70 1026.0
20260905050316 72 316 1.0 4.0 0.00 0.98 0.00 73 1026.3
20260905045415 72 315 1.0 1.0 0.00 0.98 0.00 74 1026.3
20260905044417 72 337 0.0 0.0 0.00 0.98 0.00 74 1026.3
20260905043514 72 337 0.0 1.0 0.00 0.98 0.00 75 1026.3
20260905042516 72 337 0.0 1.0 0.00 0.98 0.00 76 1026.4
20260905041613 72 337 0.0 1.0 0.00 0.98 0.00 77 1026.5
20260905040615 72 337 1.0 1.0 0.00 0.98 0.00 77 1026.5
20260905035620 72 337 1.0 4.0 0.00 0.98 0.98 78 1026.5
20260905034622 72 337 0.0 1.0 0.00 0.98 0.98 80 1026.5
20260905033622 71 292 1.0 2.0 0.00 0.98 0.98 84 1026.5
20260905032620 71 315 1.0 2.0 0.00 0.98 0.98 86 1026.4
20260905031622 71 315 1.0 2.0 0.00 0.98 0.98 86 1026.3
20260905031519 71 315 1.0 1.0 0.00 0.98 0.98 87 1026.3
20260905030520 70 337 1.0 2.0 0.00 0.98 0.98 89 1026.3
20260905025521 69 337 0.0 0.0 0.00 0.98 0.98 89 1026.3
20260905024523 69 337 0.0 0.0 0.00 0.98 0.98 89 1026.2
20260905023522 69 337 0.0 0.0 0.00 0.98 0.98 88 1026.2
20260905022521 70 337 0.0 0.0 0.00 0.98 0.98 89 1026.3
20260905020521 70 337 0.0 0.0 0.00 0.98 0.98 88 1026.4
20260905015521 70 337 0.0 0.0 0.00 0.98 0.98 87 1026.3
20260905014521 71 337 0.0 0.0 0.00 0.98 0.98 86 1026.3
20260905013521 71 337 0.0 0.0 0.00 0.98 0.98 86 1026.3
20260905012520 71 337 0.0 0.0 0.00 0.98 0.98 86 1026.3
20260905011619 71 337 0.0 0.0 0.00 0.98 0.98 85 1026.3
20260905010620 72 337 0.0 0.0 0.00 0.98 0.98 84 1026.4
20260905005621 72 337 0.0 0.0 0.00 0.98 0.98 84 1026.5
20260905004622 72 337 0.0 0.0 0.00 0.98 0.98 83 1026.3
20260905003621 72 337 0.0 0.0 0.00 0.98 0.98 83 1026.3
20260905002719 72 337 0.0 0.0 0.00 0.98 0.98 80 1026.5
20260905000721 73 337 0.0 0.0 0.00 0.98 0.98 78 1026.3
20260904235722 73 337 0.0 0.0 0.00 0.98 0.98 78 1026.3
20260904233820 75 337 0.0 0.0 0.00 0.98 0.98 74 1026.0
20260904232821 75 337 0.0 0.0 0.00 0.98 0.98 73 1026.1
20260904231819 76 337 0.0 0.0 0.00 0.98 0.98 72 1025.8
20260904224920 78 337 0.0 0.0 0.00 0.98 0.98 68 1025.9
20260904223920 78 337 0.0 0.0 0.00 0.98 0.98 66 1026.0
20260904222922 79 292 0.0 1.0 0.00 0.98 0.98 65 1025.8
20260904220921 79 315 0.0 2.0 0.00 0.98 0.98 63 1026.0
20260904215920 80 337 0.0 0.0 0.00 0.98 0.98 61 1025.8
20260904214920 80 337 0.0 1.0 0.00 0.98 0.98 59 1025.7
20260904213920 80 299 1.0 3.0 0.00 0.98 0.98 60 1025.7
20260904211919 81 315 0.0 0.0 0.00 0.98 0.98 59 1025.8
20260904210921 81 315 0.0 2.0 0.00 0.98 0.98 59 1025.8
20260904205920 81 315 1.0 3.0 0.00 0.98 0.98 59 1026.0
20260904204919 81 315 2.0 4.0 0.00 0.98 0.98 58 1025.9
20260904203920 82 315 0.0 0.0 0.00 0.98 0.98 57 1026.0
20260904202921 81 315 0.0 1.0 0.00 0.98 0.98 57 1025.9
20260904201921 82 315 2.0 4.0 0.00 0.98 0.98 55 1026.0
20260904200921 83 315 0.0 2.0 0.00 0.98 0.98 55 1026.1